La Junta, CO

6:37 PM MST on January 16, 2018 (GMT -0700)
La Junta Municipal

Weather History for KLHX - August, 2014

Change the Weather History Date:

Saturday, August 30, 2014

  Actual Average Record
Temperature  
Mean Temperature 75 °F 74 °F  
Max Temperature 93 °F 89 °F 104 °F (1985)
Min Temperature 57 °F 59 °F 48 °F (1968)
Degree Days  
Heating Degree Days 0 0  
Month to date heating degree days 0 0  
Since 1 June heating degree days 5 17  
Since 1 July heating degree days 0 1  
Cooling Degree Days 10 9  
Month to date cooling degree days 330 339  
Year to date cooling degree days 1169 1070  
Since 1 June cooling degree days 1047 997  
Growing Degree Days 24 (Base 50)    
Moisture  
Dew Point 49 °F    
Average Humidity 51    
Maximum Humidity 86    
Minimum Humidity 16    
Precipitation  
Precipitation 0.00 in 0.03 in 0.21 in (1967)
Month to date precipitation 2.18 1.56  
Year to date precipitation 10.71  
Sea Level Pressure  
Sea Level Pressure 29.84 in    
Wind  
Wind Speed 6 mph (SW)    
Max Wind Speed 18 mph    
Max Gust Speed 22 mph    
Visibility 10 miles    
Events      
T = Trace of Precipitation, MM = Missing Value Source: NWS Daily Summary

Daily Weather History Graph

Daily Weather History Graph

Search for Another Location

Airport or City:

Trip Planner

Search our weather history database for the weather conditions in past years. The results will help you decide how hot, cold, wet, or windy it might be!

Date:

Astronomy

Aug. 30, 2014 Rise Set
Actual Time 6:22 AM MDT 7:26 PM MDT
Civil Twilight 5:55 AM MDT 7:53 PM MDT
Nautical Twilight 5:22 AM MDT 8:25 PM MDT
Astronomical Twilight 4:49 AM MDT 8:58 PM MDT
Moon 11:06 AM MDT (8/30) 10:07 PM MDT (8/30)
Length of Visible Light 13h 58m
Length of Day
13h 04m
Waxing Crescent, 23% of the Moon is Illuminated
Aug 30
Waxing Crescent
Sep 2
First Quarter
Sep 8
Full
Sep 15
Last Quarter
Sep 24
New

Hourly Weather History & Observations

Time (MDT) Temp. Dew Point Humidity Pressure Visibility Wind Dir Wind Speed Gust Speed Precip Events Conditions
12:20 AM 64.9 °F 55.9 °F 73% 30.12 in 10.0 mi SW 17.3 mph - N/A   Mostly Cloudy
12:53 AM 64.0 °F 54.0 °F 70% 29.94 in 10.0 mi SW 16.1 mph 19.6 mph N/A   Mostly Cloudy
1:53 AM 64.0 °F 53.1 °F 67% 29.94 in 10.0 mi South 4.6 mph - N/A   Overcast
2:53 AM 61.0 °F 53.1 °F 75% 29.94 in 10.0 mi NW 9.2 mph - N/A   Clear
3:53 AM 57.9 °F 53.1 °F 84% 29.93 in 10.0 mi West 4.6 mph - N/A   Clear
4:53 AM 59.0 °F 52.0 °F 78% 29.92 in 10.0 mi West 5.8 mph - N/A   Clear
5:53 AM 57.9 °F 52.0 °F 81% 29.92 in 10.0 mi WSW 9.2 mph - N/A   Clear
6:53 AM 59.0 °F 51.1 °F 75% 29.94 in 10.0 mi SW 5.8 mph - N/A   Clear
7:53 AM 63.0 °F 52.0 °F 67% 29.94 in 10.0 mi Calm Calm - N/A   Clear
8:53 AM 69.1 °F 52.0 °F 54% 29.93 in 10.0 mi West 4.6 mph - N/A   Clear
9:53 AM 73.0 °F 52.0 °F 48% 29.93 in 10.0 mi Variable 4.6 mph - N/A   Clear
10:53 AM 77.0 °F 52.0 °F 42% 29.89 in 10.0 mi SW 4.6 mph - N/A   Clear
11:53 AM 82.0 °F 50.0 °F 33% 29.84 in 10.0 mi SSW 5.8 mph - N/A   Clear
12:53 PM 84.9 °F 48.0 °F 28% 29.81 in 10.0 mi WSW 6.9 mph - N/A   Clear
1:53 PM 88.0 °F 45.0 °F 22% 29.77 in 10.0 mi Variable 5.8 mph - N/A   Clear
2:53 PM 90.0 °F 44.1 °F 20% 29.74 in 10.0 mi Calm Calm - N/A   Clear
3:53 PM 91.0 °F 39.0 °F 16% 29.70 in 10.0 mi South 3.5 mph - N/A   Clear
4:53 PM 91.9 °F 42.1 °F 18% 29.69 in 10.0 mi ESE 6.9 mph - N/A   Clear
5:53 PM 90.0 °F 45.0 °F 21% 29.69 in 10.0 mi ESE 8.1 mph - N/A   Clear
6:53 PM 82.9 °F 50.0 °F 32% 29.70 in 10.0 mi East 6.9 mph - N/A   Clear
7:53 PM 77.0 °F 51.1 °F 40% 29.70 in 10.0 mi East 9.2 mph - N/A   Clear
9:53 PM 75.9 °F 48.0 °F 37% 29.69 in 10.0 mi SSE 5.8 mph - N/A   Clear
10:53 PM 73.9 °F 46.9 °F 38% 29.69 in 10.0 mi North 11.5 mph - N/A   Partly Cloudy
11:53 PM 75.0 °F 46.0 °F 36% 29.69 in 10.0 mi North 9.2 mph - N/A   Clear